Location: N�rnberg
(49.4471°N, 11.0632°E)
Time: 05:04:33
(UTC+01:00)

ISS - Visible Passes

Search period start: 14 December 2025 00:00
Search period end: 24 December 2025 00:00
Orbit: 416 x 420 km, 51.6° (Epoch: 13 December)

Date Brightness Start Highest point End Pass type
(mag) Time Alt. Az. Time Alt. Az. Time Alt. Az.
14 Dec -1.2 06:26:41 10° SSW 06:29:22 22° SE 06:32:03 10° E visible
15 Dec -0.8 05:39:32 10° S 05:41:32 15° SE 05:43:33 10° E visible
15 Dec -3.3 07:14:28 10° WSW 07:17:49 65° SSE 07:21:11 10° ENE visible
16 Dec -2.7 06:26:40 11° SW 06:29:50 45° SSE 06:33:05 10° ENE visible
17 Dec -2.2 05:41:13 29° S 05:41:51 31° SE 05:44:53 10° E visible
17 Dec -3.8 07:15:04 10° WSW 07:18:26 76° NNW 07:21:50 10° ENE visible
18 Dec -0.7 04:55:32 15° ESE 04:55:32 15° ESE 04:56:32 10° E visible
18 Dec -3.8 06:28:29 25° WSW 06:30:19 85° SSE 06:33:42 10° ENE visible
19 Dec -3.2 05:42:36 57° ESE 05:42:36 57° ESE 05:45:33 10° ENE visible
19 Dec -3.6 07:15:41 10° W 07:19:02 59° N 07:22:23 10° ENE visible
20 Dec -0.7 04:56:34 15° E 04:56:34 15° E 04:57:19 10° ENE visible
20 Dec -3.7 06:29:29 33° W 06:30:48 65° N 06:34:10 10° ENE visible
21 Dec -3.0 05:43:21 49° ENE 05:43:21 49° ENE 05:45:57 10° ENE visible
21 Dec -3.5 07:16:16 11° WNW 07:19:32 58° N 07:22:52 10° E visible
22 Dec -0.6 04:57:07 14° ENE 04:57:07 14° ENE 04:57:42 10° ENE visible
22 Dec -3.5 06:30:02 34° WNW 06:31:14 56° N 06:34:34 10° E visible
23 Dec -2.8 05:43:44 43° NE 05:43:44 43° NE 05:46:15 10° ENE visible
23 Dec -3.7 07:16:38 11° WNW 07:19:52 75° NNE 07:23:14 10° E visible
